Asheboro, NC

8:02 PM EDT on July 21, 2017 (GMT -0400)
Asheboro Municipal

Weather History for KHBI - November, 2013

Change the Weather History Date:

Saturday, November 16, 2013

  Actual Average Record
Temperature  
Mean Temperature 56 °F -  
Max Temperature 62 °F 62 °F 83 °F (1958)
Min Temperature 49 °F 39 °F 21 °F (1969)
Degree Days  
Heating Degree Days 10    
Growing Degree Days 6 (Base 50)    
Moisture  
Dew Point 52 °F    
Average Humidity 93    
Maximum Humidity 100    
Minimum Humidity 78    
Precipitation  
Precipitation 0.00 in - - ()
Sea Level Pressure  
Sea Level Pressure 30.26 in    
Wind  
Wind Speed 0 mph (NNW)    
Max Wind Speed 4 mph    
Max Gust Speed -    
Visibility 7 miles    
Events Rain    
Averages and records for this station are not official NWS values.
T = Trace of Precipitation, MM = Missing Value Source: NWS Daily Summary

Daily Weather History Graph

Daily Weather History Graph

Search for Another Location

Airport or City:

Trip Planner

Search our weather history database for the weather conditions in past years. The results will help you decide how hot, cold, wet, or windy it might be!

Date:

Astronomy

Nov. 16, 2013 Rise Set
Actual Time 6:56 AM EST 5:11 PM EST
Civil Twilight 6:29 AM EST 5:39 PM EST
Nautical Twilight 5:58 AM EST 6:09 PM EST
Astronomical Twilight 5:28 AM EST 6:40 PM EST
Moon 4:44 PM EST (11/16) 5:53 AM EST (11/16)
Length of Visible Light 11h 09m
Length of Day
10h 15m
Waxing Gibbous, 99% of the Moon is Illuminated
Nov 16
Waxing Gibbous
Nov 17
Full
Nov 25
Last Quarter
Dec 2
New
Dec 9
First Quarter

Hourly Weather History & Observations

Time (EST) Temp. Dew Point Humidity Pressure Visibility Wind Dir Wind Speed Gust Speed Precip Events Conditions
12:15 AM 49.8 °F 49.1 °F 97% 30.25 in 10.0 mi Calm Calm - N/A   Overcast
12:35 AM 50.2 °F 48.7 °F 95% 30.26 in 10.0 mi Calm Calm - N/A Rain Rain
12:55 AM 49.6 °F 49.1 °F 98% 30.25 in 7.0 mi Calm Calm - N/A Rain Rain
1:15 AM 49.6 °F 49.5 °F 99% 30.25 in 7.0 mi Calm Calm - N/A Rain Light Rain
1:35 AM 49.5 °F 49.5 °F 100% 30.25 in 7.0 mi Calm Calm - N/A   Overcast
1:55 AM 49.5 °F 49.5 °F 100% 30.25 in 7.0 mi Calm Calm - N/A   Overcast
2:15 AM 49.5 °F 49.5 °F 100% 30.25 in 5.0 mi Calm Calm - N/A   Overcast
2:35 AM 49.3 °F 49.3 °F 100% 30.25 in 5.0 mi Calm Calm - N/A   Overcast
2:55 AM 49.6 °F 49.6 °F 100% 30.26 in 5.0 mi Calm Calm - N/A   Overcast
3:15 AM 49.5 °F 49.5 °F 100% 30.26 in 5.0 mi Calm Calm - N/A   Overcast
3:35 AM 49.5 °F 49.5 °F 100% 30.25 in 4.0 mi Calm Calm - N/A Rain Light Rain
3:55 AM 49.3 °F 49.3 °F 100% 30.26 in 5.0 mi Calm Calm - N/A   Overcast
4:15 AM 49.8 °F 49.8 °F 100% 30.25 in 5.0 mi Calm Calm - N/A   Overcast
4:35 AM 50.0 °F 50.0 °F 100% 30.25 in 5.0 mi Calm Calm - N/A   Overcast
4:55 AM 50.2 °F 50.2 °F 100% 30.25 in 5.0 mi Calm Calm - N/A   Overcast
5:15 AM 50.0 °F 50.0 °F 100% 30.25 in 5.0 mi Calm Calm - N/A   Overcast
5:35 AM 50.0 °F 50.0 °F 100% 30.25 in 5.0 mi Calm Calm - N/A   Overcast
5:55 AM 49.8 °F 49.8 °F 100% 30.25 in 4.0 mi Calm Calm - N/A   Overcast
6:15 AM 50.0 °F 50.0 °F 100% 30.26 in 5.0 mi Calm Calm - N/A   Overcast
6:35 AM 50.0 °F 50.0 °F 100% 30.26 in 5.0 mi Calm Calm - N/A   Overcast
6:55 AM 50.0 °F 50.0 °F 100% 30.26 in 5.0 mi Calm Calm - N/A   Overcast
7:15 AM 50.2 °F 50.2 °F 100% 30.26 in 5.0 mi Calm Calm - N/A   Overcast
7:35 AM 50.7 °F 50.7 °F 100% 30.27 in 5.0 mi Calm Calm - N/A   Overcast
7:55 AM 51.3 °F 50.9 °F 99% 30.27 in 7.0 mi Calm Calm - N/A   Mostly Cloudy
8:15 AM 51.1 °F 50.4 °F 97% 30.28 in 5.0 mi Calm Calm - N/A   Overcast
8:35 AM 51.8 °F 51.8 °F 100% 30.28 in 5.0 mi Calm Calm - N/A   Mostly Cloudy
8:55 AM 52.0 °F 51.1 °F 97% 30.29 in 4.0 mi Calm Calm - N/A   Overcast
9:15 AM 52.5 °F 51.6 °F 97% 30.30 in 2.5 mi Calm Calm - N/A   Overcast
9:35 AM 53.1 °F 52.0 °F 96% 30.30 in 5.0 mi Calm Calm - N/A   Overcast
9:55 AM 54.0 °F 52.5 °F 95% 30.30 in 5.0 mi Calm Calm - N/A   Overcast
10:15 AM 54.9 °F 53.1 °F 94% 30.30 in 5.0 mi Calm Calm - N/A   Overcast
10:35 AM 55.4 °F 53.1 °F 92% 30.29 in 5.0 mi Calm Calm - N/A   Overcast
10:55 AM 55.9 °F 53.6 °F 92% 30.30 in 5.0 mi Calm Calm - N/A   Overcast
11:15 AM 56.5 °F 54.1 °F 92% 30.30 in 5.0 mi Calm Calm - N/A   Overcast
11:35 AM 57.9 °F 54.3 °F 88% 30.30 in 7.0 mi Calm Calm - N/A   Overcast
11:55 AM 58.5 °F 54.5 °F 87% 30.29 in 10.0 mi Calm Calm - N/A   Overcast
12:15 PM 59.4 °F 54.7 °F 84% 30.28 in 10.0 mi Calm Calm - N/A   Overcast
12:35 PM 60.3 °F 54.9 °F 82% 30.28 in 10.0 mi NNW 3.5 mph - N/A   Overcast
12:55 PM 60.8 °F 54.9 °F 81% 30.27 in 10.0 mi Calm Calm - N/A   Overcast
1:15 PM 61.2 °F 55.2 °F 81% 30.26 in 10.0 mi NNE 3.5 mph - N/A   Overcast
1:35 PM 61.7 °F 55.2 °F 79% 30.26 in 10.0 mi Calm Calm - N/A   Overcast
1:55 PM 62.1 °F 55.4 °F 79% 30.25 in 10.0 mi NNW 3.5 mph - N/A   Overcast
2:15 PM 62.4 °F 55.4 °F 78% 30.25 in 10.0 mi West 3.5 mph - N/A   Overcast
2:35 PM 62.1 °F 55.4 °F 79% 30.24 in 10.0 mi Calm Calm - N/A   Mostly Cloudy
2:55 PM 62.2 °F 55.4 °F 78% 30.23 in 10.0 mi NW 3.5 mph - N/A   Mostly Cloudy
3:15 PM 62.4 °F 55.4 °F 78% 30.24 in 10.0 mi NNW 3.5 mph - N/A   Mostly Cloudy
3:35 PM 62.2 °F 55.4 °F 78% 30.24 in 10.0 mi Calm Calm - N/A   Overcast
3:55 PM 62.2 °F 55.4 °F 78% 30.24 in 10.0 mi Calm Calm - N/A   Overcast
4:15 PM 62.1 °F 55.4 °F 79% 30.24 in 10.0 mi NNE 3.5 mph - N/A   Overcast
4:35 PM 61.7 °F 55.2 °F 79% 30.24 in 10.0 mi NNE 3.5 mph - N/A   Scattered Clouds
4:55 PM 61.0 °F 55.0 °F 81% 30.24 in 10.0 mi Calm Calm - N/A   Scattered Clouds
5:15 PM 60.4 °F 55.0 °F 82% 30.24 in 10.0 mi North 3.5 mph - N/A   Mostly Cloudy
5:35 PM 59.7 °F 54.7 °F 83% 30.24 in 10.0 mi Calm Calm - N/A   Mostly Cloudy
5:55 PM 57.4 °F 54.3 °F 90% 30.24 in 10.0 mi Calm Calm - N/A   Scattered Clouds
6:15 PM 57.0 °F 54.5 °F 91% 30.25 in 10.0 mi Calm Calm - N/A   Mostly Cloudy
6:35 PM 57.2 °F 54.3 °F 90% 30.25 in 10.0 mi Calm Calm - N/A   Mostly Cloudy
6:55 PM 55.6 °F 53.8 °F 94% 30.25 in 10.0 mi Calm Calm - N/A   Scattered Clouds
7:15 PM 54.5 °F 53.4 °F 96% 30.25 in 10.0 mi Calm Calm - N/A   Scattered Clouds
7:35 PM 54.3 °F 53.6 °F 97% 30.26 in 10.0 mi Calm Calm - N/A   Mostly Cloudy
7:55 PM 54.1 °F 53.1 °F 96% 30.26 in 7.0 mi Calm Calm - N/A   Scattered Clouds
8:15 PM 53.6 °F 53.2 °F 99% 30.28 in 7.0 mi Calm Calm - N/A   Mostly Cloudy
8:35 PM 53.6 °F 53.1 °F 98% 30.27 in 7.0 mi Calm Calm - N/A   Mostly Cloudy
8:55 PM 53.2 °F 52.9 °F 99% 30.27 in 7.0 mi Calm Calm - N/A   Mostly Cloudy
9:15 PM 53.8 °F 53.2 °F 98% 30.27 in 7.0 mi Calm Calm - N/A   Mostly Cloudy
9:35 PM 52.2 °F 51.8 °F 99% 30.27 in 7.0 mi Calm Calm - N/A   Scattered Clouds
9:55 PM 52.9 °F 52.7 °F 99% 30.27 in 5.0 mi Calm Calm - N/A   Clear
10:15 PM 51.6 °F 51.6 °F 100% 30.27 in 5.0 mi Calm Calm - N/A   Scattered Clouds
10:35 PM 54.9 °F 54.5 °F 99% 30.26 in 7.0 mi Calm Calm - N/A   Scattered Clouds
10:55 PM 53.6 °F 52.9 °F 97% 30.26 in 5.0 mi Calm Calm - N/A   Scattered Clouds
11:15 PM 54.7 °F 54.7 °F 100% 30.25 in 5.0 mi Calm Calm - N/A   Overcast
11:35 PM 53.4 °F 53.4 °F 100% 30.25 in 5.0 mi Calm Calm - N/A   Overcast
11:55 PM 53.2 °F 53.1 °F 99% 30.24 in 5.0 mi Calm Calm - N/A   Overcast